Home > Weather > Tübingen > Past weeks

Flag for Germany Past Weather in Tübingen, Baden-Württemberg, Germany — Yesterday and Last 2 Weeks

Now
64 °F

Clear.


Feels Like: 64 °F
Forecast: 51 / 73 °F
Wind: 3 mph from West

Location: Stuttgart-Echterdingen

Current Time: Jul 31, 2016 at 3:39:52 AM

Latest Report: Jul 31, 2016 at 3:20 AM


Visibility: 10 mi

Pressure: 29.92 "Hg

Humidity: 88%

Dew Point: 61 °F

Location of TübingenLocation

Past Weather in Tübingen — Graph

°F

Tübingen Temperature Yesterday

Maximum temperature yesterday: 84 °F (at 2:50 PM)
Minimum temperature yesterday: 61 °F (at 4:50 AM)
Average temperature yesterday: 73 °F

High & Low Weather Summary for the Past Weeks

 TemperatureHumidityPressure
High91 °F (Jul 20, 4:20 PM)100% (Jul 18, 6:20 AM)30.33 "Hg (Jul 18, 6:20 AM)
Low48 °F (Jul 16, 4:20 AM)28% (Jul 20, 4:50 PM)29.89 "Hg (Jul 31, 2:20 AM)
Average71 °F71%30.09 "Hg
* Reported Jul 16 2:20 AM — Jul 31 2:20 AM, Tübingen, Weather by CustomWeather, © 2016

Note: Actual official high and low records may vary slightly from our data, if they occured in-between our weather recording intervals... More about our weather records

Advertising

Tübingen Weather History for the Previous 24 Hours

Scroll right to see more
 ConditionsComfort  
Time TempWeatherWind HumidityBarometerVisibility
2:20 AM
Sun, Jul 31
66 °FClear.1 mph83%29.89 "Hg10 mi
1:50 AM66 °FPassing clouds.2 mph83%29.92 "HgN/A
1:20 AM66 °FPassing clouds.1 mph83%29.92 "HgN/A
12:50 AM66 °FPassing clouds.1 mph83%29.92 "HgN/A
12:20 AM66 °FClear.5 mph83%29.92 "Hg10 mi
11:50 PM
Sat, Jul 30
68 °FPassing clouds.3 mph78%29.92 "HgN/A
11:20 PM70 °FClear.2 mph73%29.92 "Hg10 mi
10:50 PM70 °FClear.1 mph73%29.95 "Hg10 mi
10:20 PM72 °FClear.2 mph69%29.95 "Hg10 mi
9:50 PM73 °FSunny.2 mph65%29.95 "Hg10 mi
9:20 PM73 °FSunny.5 mph65%29.95 "Hg10 mi
8:50 PM75 °FSunny.6 mph61%29.95 "Hg10 mi
8:20 PM77 °FPassing clouds.6 mph57%29.92 "HgN/A
7:50 PM77 °FPassing clouds.7 mph57%29.92 "HgN/A
7:20 PM79 °FSunny.8 mph54%29.92 "Hg10 mi
6:50 PM82 °FPassing clouds.9 mph40%29.92 "HgN/A
6:20 PM84 °FPassing clouds.7 mph35%29.92 "HgN/A
5:50 PM84 °FPassing clouds.9 mph35%29.92 "HgN/A
5:20 PM84 °FPassing clouds.7 mph37%29.92 "HgN/A
4:50 PM84 °FPassing clouds.8 mph35%29.92 "HgN/A
4:20 PM84 °FSunny.6 mph37%29.92 "Hg10 mi
3:50 PM84 °FPassing clouds.12 mph40%29.95 "HgN/A
3:20 PM82 °FPassing clouds.9 mph40%29.95 "HgN/A
2:50 PM84 °FPassing clouds.7 mph40%29.95 "HgN/A
2:20 PM82 °FPassing clouds.9 mph42%29.95 "HgN/A
1:50 PM82 °FScattered clouds.13 mph48%29.95 "HgN/A
1:20 PM81 °FScattered clouds.7 mph54%29.95 "HgN/A
12:50 PM79 °FScattered clouds.7 mph54%29.95 "HgN/A
12:20 PM79 °FScattered clouds.12 mph54%29.98 "HgN/A
11:50 AM77 °FScattered clouds.3 mph61%29.98 "HgN/A
11:20 AM77 °FScattered clouds.5 mph57%29.98 "HgN/A
10:50 AM75 °FSunny.6 mph61%29.98 "Hg10 mi
10:20 AM75 °FSunny.3 mph61%29.98 "Hg10 mi
9:50 AM73 °FPassing clouds.3 mph65%29.98 "HgN/A
9:20 AM72 °FPassing clouds.3 mph69%29.98 "HgN/A
8:50 AM70 °FSunny.2 mph73%30.01 "Hg10 mi
8:20 AM68 °FPassing clouds.2 mph78%30.01 "HgN/A
7:50 AM66 °FPassing clouds.2 mph83%30.01 "HgN/A
7:20 AM64 °FScattered clouds.2 mph83%30.01 "HgN/A
6:50 AM63 °FPassing clouds.No wind88%30.01 "HgN/A
6:20 AM63 °FPassing clouds.2 mph88%29.98 "HgN/A
5:50 AM61 °FPassing clouds.2 mph94%29.98 "HgN/A
5:20 AM61 °FPassing clouds.1 mph94%29.98 "HgN/A
4:50 AM61 °FPassing clouds.1 mph94%29.98 "HgN/A
4:20 AM63 °FPassing clouds.No wind88%29.98 "HgN/A
3:50 AM63 °FPassing clouds.2 mph88%30.01 "HgN/A
3:20 AM63 °FPassing clouds.2 mph88%30.01 "HgN/A
Weather by CustomWeather, © 2016

See weather overviewHow to use our weather pages